Showing default

EXPLORER 16, 506

Orbit data source: Space-Track

EXPLORER 16, 506 is a payload satellite owned by NASA LaRC (US) in LEO that was launched on Sun, 16 Dec 1962 UTC via an SCOUT X-3 launch vehicle from the Wallops Island (WLPIS). Payloads include a variety of satellites, spacecraft, and rockets equipped with specific instruments for various scientific and technological missions. These include communications satellites like Starlink; space stations such as the ISS; scientific satellites like the Hubble; Earth observation satellites from companies like Planet Labs, Umbra, and HawkEye 360; GPS; miniature CubeSats for education and research; and military/defense satellites.

Loading next visibility...
EXPLORER 16 details
Identifier
506, 1962-070A
Orbit
LEO
Last TLE update19 hours ago
Origin
Flag of USNASA LaRC (US)
ManufacturerNASA LaRC
MissionCivil Science
Bus & MotorS-55, Unknown motor
Mass100 kg wet, 76 kg dry
Launch date (UTC)
1962-12-16 (62 years ago)
Launch vehicle
SCOUT X-3
Launch site
Wallops Island (WLPIS)
Object type
Payload
Rocket body
Debris
Shape & HBRCyl, 1.93 m
Radar Cross Section1.071 m², Medium (>0.1 m² and < 1m²)

Expand to show TLE details & history

TLE from 19 hours ago
0 EXPLORER 16
1 00506U 62070A   25014.79230941  .00000006  00000-0  97991-4 0  9998
2 00506  52.0009 230.8443 0276206 339.5809  19.4242 13.85632072136888
Epoch: 2025-01-14T19:00Z
Definitive object data (Epoch: 2025-01-14T19:00:55.533Z)
Latitude-0.00002°
Longitude-168.88103°
Altitude754.624 km
Speed7.575 km/s
True Right ascension15h 23m 22s
True Declination0° 00' 00"
Sunlit
Object was in daylight at TLE epoch
Visualization TLE readout
Latitude-16.89106°
Longitude174.4788°
Altitude746.466 km
Speed7.584 km/s
Apparent Right ascension13h 23m 50s
Apparent Declination-71° 58' 22"
Sunlit
Object is in daylight
Visualization observer readout
Local Sidereal Time14:38:13
Azimuth186.139° SSW
Elevation-22.656°
Doppler factor1
Orbital elements
Apogee altitude1,146.648 km
Perigee altitude742.143 km
Semi-major axis7,322.532 km
Eccentricity0.0276206
Inclination52.0009°
RAAN230.8443°
Arg. of periapsis339.5809°
True anomaly20.51209°
Mean anomaly19.4242°
Eccentric anomaly19.96454°
Mean motion3.46379 °/min
BSTAR0.000097991
Orbital period103.93 mins
Loading maneuver chart data...
Loading historical data...
Loading historical data...
Loading historical data...
Loading historical data...
Loading historical data...
Loading historical data...
Loading historical data...
Other satellites on launch #70 in the year 1962 (1962-12-16 UTC)

EXPLORER 16 Visibility forecast

Observer location: undefined°, undefined

Span
Click to sort rows by Start time (UTC) header in descending order
Start Az.
Max El. time (UTC)
Max El. Az.
Max El.
End time (UTC)
End Az.
9 mins2025-01-15 15:55:36.632Z186.519° SSW2025-01-15 15:59:36.632Z131.086° SE28.355°2025-01-15 16:04:36.632Z68.957° E
10 mins2025-01-15 17:43:36.632Z251.885° W2025-01-15 17:47:36.632Z310.179° NW40.536°2025-01-15 17:53:36.632Z47.256° ENE
9 mins2025-01-15 19:33:36.632Z298.928° NW2025-01-15 19:37:36.632Z349.301° N26.315°2025-01-15 19:42:36.632Z46.302° ENE
10 mins2025-01-15 21:23:36.632Z319.591° NNW2025-01-15 21:27:36.632Z7.495° NNE28.494°2025-01-15 21:33:36.632Z74.322° E
12 mins2025-01-15 23:12:36.632Z312.498° NW2025-01-15 23:17:36.632Z29.949° NE43.751°2025-01-15 23:24:36.632Z119.712° SE
10 mins2025-01-16 01:01:36.632Z283.858° WNW2025-01-16 01:06:36.632Z224.52° SW28.58°2025-01-16 01:11:36.632Z175.261° S
|